This demonstration page uses our WeatherBlox Daily Observations layout. Learn more.

Left ArrowRight Arrow

40.92945, -100.16068

Hourly Observations for September 6, 2016

Temp ( °F °C ) Dew Point ( °F °C ) Humidity (%) Winds ( mph kmh ) Pressure ( in mb ) Visibility ( mi km ) Precip ( " mm )
12:15 am 00:15 Mostly Cloudy with Nearby Thunderstorms 70 21.2 62 16.7 76 76 NE 9 15 29.77 1008 10 16 N/A
12:35 am 00:35 Partly Cloudy 67 19.5 60 15.5 78 78 NE 10 17 29.77 1008 10 16 N/A
12:55 am 00:55 Clear 67 19.3 60 15.5 79 79 NE 10 17 29.77 1008 10 16 N/A
1:15 am 01:15 Clear 66 18.7 60 15.5 82 82 ENE 10 17 29.74 1007 10 16 N/A
1:35 am 01:35 Clear 65 18.1 60 15.7 86 86 E 8 13 29.74 1007 10 16 N/A
1:55 am 01:55 Clear 66 19.1 61 15.9 82 82 E 10 17 29.74 1007 10 16 N/A
2:15 am 02:15 Clear 68 19.9 61 16.3 80 80 ESE 10 17 29.74 1007 10 16 N/A
2:35 am 02:35 Clear 68 20 62 16.8 82 82 ESE 10 17 29.71 1006 10 16 N/A
2:55 am 02:55 Clear 68 20.2 63 17.4 84 84 ESE 8 13 29.71 1006 10 16 N/A
3:15 am 03:15 Clear 68 20.2 64 18 87 87 ESE 8 13 29.71 1006 10 16 N/A
3:35 am 03:35 Clear 69 20.4 65 18.3 88 88 E 7 11 29.71 1006 10 16 N/A
3:55 am 03:55 Clear 67 19.5 64 18 91 91 E 6 9 29.71 1006 10 16 N/A
4:15 am 04:15 Clear 67 19.6 65 18.2 92 92 N 7 11 29.74 1007 10 16 N/A
4:35 am 04:35 Clear 68 20 65 18.3 90 90 N 7 11 29.77 1008 10 16 N/A
4:55 am 04:55 Clear 69 20.7 64 18 85 85 NE 12 19 29.77 1008 10 16 N/A
5:15 am 05:15 Clear 68 19.8 62 16.8 83 83 NNE 13 20 29.77 1008 10 16 N/A
5:35 am 05:35 Clear 66 19.1 62 16.7 86 86 ENE 14 22 29.77 1008 10 16 N/A
6:00 am 06:00 Clear 66 18.7 63 17 90 90 ENE 15 24 29.77 1008 10 16 N/A
6:20 am 06:20 Clear 65 18.6 63 17 90 90 NE 10 17 29.77 1008 10 16 N/A
6:35 am 06:35 Clear 65 18.5 63 17 91 91 ENE 7 11 29.83 1010 10 16 N/A
7:00 am 07:00 Clear 65 18.3 63 17 92 92 NE 8 13 29.83 1010 10 16 N/A
7:10 am 07:10 Partly Cloudy 65 18.3 63 17 92 92 NE 9 15 29.83 1010 10 16 N/A
7:40 am 07:40 Mostly Cloudy 65 18.4 63 17 92 92 NE 9 15 29.83 1010 10 16 N/A
7:55 am 07:55 Cloudy 65 18.5 63 17.1 92 92 NE 8 13 29.85 1011 10 16 N/A
8:15 am 08:15 Cloudy 65 18.5 63 17.1 92 92 NNE 14 22 29.85 1011 10 16 N/A
8:35 am 08:35 Cloudy 65 18.5 63 17 91 91 NNE 13 20 29.85 1011 10 16 N/A
8:55 am 08:55 Cloudy 65 18.5 63 17.1 92 92 NE 13 20 29.88 1012 10 16 N/A
9:15 am 09:15 Cloudy 66 18.7 63 17.2 91 91 NE 13 20 29.88 1012 10 16 N/A
9:35 am 09:35 Cloudy 66 19 63 17.3 90 90 NE 12 19 29.88 1012 10 16 N/A
9:55 am 09:55 Cloudy 67 19.2 64 17.6 91 91 NE 9 15 29.83 1010 10 16 N/A
10:15 am 10:15 Cloudy 67 19.7 64 17.8 89 89 ESE 8 13 29.85 1011 10 16 N/A
10:35 am 10:35 Cloudy 69 20.3 65 18.1 87 87 ENE 10 17 29.85 1011 10 16 N/A
10:55 am 10:55 Mostly Cloudy 69 20.5 65 18.2 87 87 NE 8 13 29.85 1011 10 16 N/A
11:15 am 11:15 Cloudy 69 20.7 65 18.4 87 87 NE 8 13 29.85 1011 10 16 N/A
11:35 am 11:35 Cloudy 70 21 65 18.5 86 86 NNE 9 15 29.85 1011 10 16 N/A
11:55 am 11:55 Cloudy 70 21.2 66 18.8 86 86 NNE 12 19 29.85 1011 10 16 N/A
12:15 pm 12:15 Cloudy 70 21.2 66 18.7 86 86 NE 7 11 29.88 1012 10 16 N/A
12:35 pm 12:35 Cloudy 70 21.2 65 18.6 85 85 N 7 11 29.88 1012 10 16 N/A
12:55 pm 12:55 Cloudy 70 21 66 18.7 87 87 N 7 11 29.88 1012 10 16 N/A
1:15 pm 13:15 Cloudy 69 20.8 65 18.6 87 87 NNE 8 13 29.88 1012 10 16 N/A
1:35 pm 13:35 Cloudy 70 21.2 66 18.8 86 86 NNE 12 19 29.88 1012 7 11 N/A
1:55 pm 13:55 Cloudy 70 21.2 66 18.8 86 86 N 8 13 29.88 1012 7 11 N/A
2:15 pm 14:15 Cloudy 71 21.4 66 19.1 87 87 NNE 9 15 29.88 1012 7 11 N/A
2:35 pm 14:35 Cloudy 71 21.5 66 19.1 86 86 NNE 8 13 29.88 1012 7 11 N/A
2:55 pm 14:55 Cloudy 70 21.1 66 19.1 88 88 N 6 9 29.88 1012 7 11 N/A
3:15 pm 15:15 Cloudy 71 21.6 66 19 85 85 N 9 15 29.88 1012 10 16 N/A
3:35 pm 15:35 Cloudy 72 22.3 67 19.4 84 84 N 13 20 29.88 1012 10 16 N/A
3:55 pm 15:55 Cloudy 72 22.4 67 19.2 82 82 N 14 22 29.88 1012 10 16 N/A
4:15 pm 16:15 Cloudy 71 21.7 65 18.5 82 82 N 13 20 29.88 1012 10 16 N/A
4:35 pm 16:35 Cloudy 70 21 65 18.2 84 84 NNE 13 20 29.88 1012 10 16 N/A
4:55 pm 16:55 Cloudy 71 21.6 65 18.6 83 83 NNE 8 13 29.88 1012 10 16 N/A
5:15 pm 17:15 Cloudy 73 22.5 66 18.8 80 80 NNE 10 17 29.88 1012 10 16 N/A
5:35 pm 17:35 Cloudy 73 23 66 18.8 77 77 NE 10 17 29.88 1012 10 16 N/A
5:55 pm 17:55 Cloudy 74 23.1 66 18.9 77 77 NNE 10 17 29.85 1011 10 16 N/A
6:15 pm 18:15 Cloudy 73 22.6 65 18.4 77 77 NNE 8 13 29.88 1012 10 16 N/A
6:35 pm 18:35 Cloudy 73 22.5 65 18.5 78 78 NNE 9 15 29.88 1012 10 16 N/A
6:55 pm 18:55 Cloudy 72 22.2 64 18 77 77 NNE 9 15 29.85 1011 10 16 N/A
7:15 pm 19:15 Cloudy 71 21.5 64 17.9 80 80 NE 13 20 29.85 1011 10 16 N/A
7:35 pm 19:35 Cloudy 70 21 64 17.6 81 81 NE 12 19 29.85 1011 10 16 N/A
7:55 pm 19:55 Cloudy 69 20.7 64 17.5 82 82 NNE 12 19 29.85 1011 10 16 N/A
8:15 pm 20:15 Cloudy 69 20.3 63 17.3 83 83 NE 12 19 29.85 1011 10 16 N/A
8:35 pm 20:35 Cloudy 68 20.2 63 17.4 84 84 NE 7 11 29.88 1012 10 16 N/A
8:55 pm 20:55 Cloudy 68 20 62 16.9 82 82 NE 9 15 29.88 1012 10 16 N/A
9:15 pm 21:15 Cloudy 67 19.7 62 16.6 82 82 NE 10 17 29.88 1012 10 16 N/A
9:35 pm 21:35 Cloudy 67 19.5 62 16.5 83 83 NE 12 19 29.91 1013 10 16 N/A
9:55 pm 21:55 Cloudy 67 19.2 62 16.6 85 85 NE 10 17 29.94 1014 10 16 N/A
10:15 pm 22:15 Cloudy 66 19 61 16.3 84 84 ENE 9 15 29.91 1013 10 16 N/A
10:35 pm 22:35 Cloudy 66 18.8 61 16.2 85 85 ENE 13 20 29.91 1013 10 16 N/A
10:55 pm 22:55 Cloudy 66 18.8 61 16.2 85 85 NNE 9 15 29.91 1013 10 16 N/A
11:15 pm 23:15 Cloudy 66 18.7 61 16.1 85 85 NE 8 13 29.91 1013 10 16 N/A
11:35 pm 23:35 Cloudy 66 18.7 61 16.1 85 85 ENE 5 7 29.94 1014 10 16 N/A
11:55 pm 23:55 Cloudy with Nearby Thunderstorms 66 18.7 61 16.2 85 85 NE 5 7 29.94 1014 10 16 N/A

Powered by AerisWeather